Regional Weather Roundup
Issued by NWS

Home | Current Version | Previous Version | Graphics & Text | Print | Product List | Glossary On
Versions: 1 2 3 4 5 6 7 8 9 10 11 12 13 14 15 16 17 18 19 20 21 22 23 24 25 26 27 28 29 30 31 32 33 34 35 36 37 38 39 40 41 42 43 44 45 46 47 48 49 50
000
ASUS45 KSLC 162010
RWRUT

UTAH REGIONAL WEATHER ROUNDUP
NATIONAL WEATHER SERVICE SALT LAKE CITY UT
200 PM MDT WED AUG 16 2017

UTZ001>011-023>025-162100-

NORTHERN UTAH

CITY           SKY/WX    TMP DP  RH WIND       PRES   REMARKS
BRIGHAM CITY   SUNNY     82  33  17 NW3       30.08F
DUGWAY         MOSUNNY   86  30  13 NW2       30.05F
HILL AFB       MOSUNNY   81  37  20 NW8       30.10F
LOGAN          SUNNY     83  37  19 S5        30.08F
OGDEN          SUNNY     82  37  20 W5        30.07F
SALT LAKE CITY PTSUNNY   84  39  20 NE7       30.06S
TOOELE VALLEY  MOSUNNY   82  45  26 N15       30.07S
WENDOVER       PTSUNNY   81  32  17 E9        30.06F
HEBER CITY     MOSUNNY   81  28  15 W3        30.13F
WEST JORDAN    MOSUNNY   83  49  30 NE6       30.09S

$$

UTZ011>015-024>027-162100-

CENTRAL/NORTHEAST UTAH

CITY           SKY/WX    TMP DP  RH WIND       PRES   REMARKS
PROVO AIRPORT  MOSUNNY   80  43  26 W5        30.09F
MOAB/CANYONLAN SUNNY     86  33  15 VRB6      30.05F
DELTA          SUNNY     82  30  15 S8        30.08F
PRICE          SUNNY     79  35  20 S6        30.15F
ROOSEVELT      SUNNY     77  43  29 NE3       30.15F
VERNAL         SUNNY     75  49  39 VRB5      30.15F

$$

UTZ013>016-019>022-027-162100-

SOUTHERN UTAH

CITY           SKY/WX    TMP DP  RH WIND       PRES   REMARKS
BRYCE CANYON   MOSUNNY   74  25  16 E5        30.27F
CEDAR CITY     SUNNY     82  36  19 NW7G17    30.13F
MILFORD        SUNNY     87  31  13 SW10      30.08F
ST GEORGE      PTCLDY    91  36  14 VRB5      29.96F
HANKSVILLE     MOSUNNY   88  34  14 S6        30.08F
BLANDING       SUNNY     80  31  16 S8        30.23F

$$

REGIONAL REPORTS     COLORADO/ARIZONA

CITY           SKY/WX    TMP DP  RH WIND       PRES   REMARKS
CRAIG, CO      MOSUNNY   75  36  24 W9        30.19F
GRAND JUNCTION SUNNY     84  36  18 NW10      30.08F
RIFLE, CO      MOSUNNY   80  33  18 MISG      30.11F
MONTROSE, CO   SUNNY     78  34  20 NW7       30.15F
CORTEZ, CO     SUNNY     81  27  14 N8G18     30.16F
COLORADO CITY    N/A     88  32  13 SE9       30.13S
PAGE, AZ       SUNNY     89  29  11 NE8       30.05F
GRAND CANYON   SUNNY     76  25  15 S12       30.24F
KINGMAN, AZ    SUNNY     89  39  17 SW9G18    30.02S
FLAGSTAFF, AZ  PTSUNNY   70  32  24 S13G20    30.29S

$$

REGIONAL REPORTS    NEVADA/IDAHO/WYOMING

CITY           SKY/WX    TMP DP  RH WIND       PRES   REMARKS
LAS VEGAS, NV  MOSUNNY   94  39  14 SE10      29.92F HX  90
ELY, NY        PTSUNNY   78  38  23 S9        30.19F
ELKO, NV       MOSUNNY   81  34  18 SW10      30.10F
POCATELLO, ID  MOSUNNY   84  35  17 W12       30.08F
BURLEY, ID     MOSUNNY   80  41  24 VRB5      30.05F
FORT BRIDGER,    N/A     73  31  21 N6        30.25F
EVANSTON, WY   MOSUNNY   72  34  24 SW6       30.23F
ROCK SPRINGS,  MOSUNNY   72  40  31 N7        30.22F
KEMMERER, WY     N/A     72  30  21 SW3       30.25F

$$



USA.gov is the U.S. government's official web portal to all federal, state and local government web resources and services.